Regional Weather Roundup
Issued by NWS Newport/Morehead, NC

Home | Current Version | Previous Version | Text Only | Print | Product List | Glossary On
Versions: 1 2 3 4 5 6 7 8 9 10 11 12 13 14 15 16 17 18 19 20 21 22 23 24 25 26 27 28 29 30 31 32 33 34 35 36 37 38 39 40 41 42 43 44 45 46 47 48 49 50
000
ASUS42 KMHX 162010
RWRMHX
WEATHER ROUNDUP FOR EASTERN NORTH CAROLINA
NATIONAL WEATHER SERVICE NEWPORT/MOREHEAD CITY NC
400 PM EDT WED APR 16 2014

NOTE: "FAIR" INDICATES FEW OR NO CLOUDS BELOW 12,000 FEET
WITH NO SIGNIFICANT WEATHER AND/OR OBSTRUCTIONS TO VISIBILITY

NCZ015>017-031-032-045>047-102-103-162100-
NORTH COAST

CITY           SKY/WX    TMP DP  RH WIND       PRES   REMARKS
EDENTON        SUNNY     52  30  42 E10       30.37F
ELIZABETH CITY SUNNY     49  30  48 N17G26    30.38F
KITTY HAWK     CLEAR     45  27  49 NE12G21   30.38S
MANTEO         SUNNY     45  27  50 NE20G29   30.39S

$$

NCZ045>047-081-094-103-104-162100-
CENTRAL COAST

CITY           SKY/WX    TMP DP  RH WIND       PRES   REMARKS
FRISCO         PTSUNNY   44  31  60 NE18G29   30.35F
SWANQUARTER      N/A     52 N/A N/A NE17G24   30.33S

$$

NCZ095-097-098-100-101-162100-
SOUTHERN COAST

CITY           SKY/WX    TMP DP  RH WIND       PRES   REMARKS
BEAUFORT       MOSUNNY   52  33  48 NE17G31   30.33S
CEDAR ISLAND     N/A     50 N/A N/A N23G30    30.39S
JACKSONVILLE   SUNNY     55  30  38 NE10      30.32F
NEWPORT          N/A     54  34  47 NE9G15      N/A
PINEY ISLAND   CLEAR     52  33  48 NE17G31   30.34F
WILMINGTON     SUNNY     58  28  32 NE12      30.32F


$$

NCZ011>013-027>030-043-044-078>080-089-090>093-098-162100-
COASTAL PLAIN

CITY           SKY/WX    TMP DP  RH WIND       PRES   REMARKS
AHOSKIE        SUNNY     51  23  33 N12       30.38S
CLINTON        SUNNY     54  30  40 NE8G16    30.35F
ELIZABETHTOWN  SUNNY     54  26  34 NE3       30.33S
GOLDSBORO      SUNNY     54  27  35 NE17G23   30.33F
GREENVILLE     SUNNY     54  27  35 NE8G16    30.36S
HAVELOCK       MOSUNNY   54  31  41 NE18G25   30.34F
KENANSVILLE    SUNNY     52  26  36 N7        30.35F
KINSTON        SUNNY     54  27  35 NE13G18   30.35F
NEW BERN       SUNNY     55  32  41 NE14G22   30.35F
RICHLANDS      SUNNY     55  28  35 N10G21    30.34S
ROANOKE RAPIDS NOT AVBL
ROCKY MOUNT      N/A    N/A N/A N/A MISG      30.37S
WASHINGTON     SUNNY     53  16  23 N8G16     30.35F
WHITEVILLE     SUNNY     55  28  35 NE12      30.32S

$$

AMZ130-135-150-152-154-156-158-170-250-252-270-ANZ085-086-088-633-658-670-162100-
MARINE OBSERVATIONS

STATION/POSITION TIME  TEMP    WIND        PRES    WAVE   SWELL
                       AIR SEA DIR/SP/G            HT/PER HT/PER
                 (UTC) (F)     (DEG/KT/KT) (MB)    (FT/S) (FT/S)
CHESAPEAKE LIGHT 1900   41      30/ 14/ 16 1029.9
BUOY 44014       2000   42 65   20/ 23/ 29 1028.1   11/ 9   7/ 9
DUCK             2000   42 49   20/ 19/ 23 1027.9
2E DUCK          2000      47                N/A     7/ 8   2/11
OREGON INLET     2000   43 55   10/ 20/ 25 1028.4
BUOY 44095       2000      58                N/A    10/ 8   3/11
HATTERAS CG      2000   45 60   20/ 14/ 23 1028.0
DIAMOND BUOY     NOT AVBL
CAPE LOOKOUT     2000   49      40/ 24/ 29 1026.9
BEAUFORT LAB     2000   50 62   20/ 14/ 21 1026.4
30 SE NEW RIVER  2000   50 64   30/ 21/ 27 1026.7    7/ 6   3/ 9
5 SE WRIGHTSVILL 1900   50 60   70/ 17/ 19 1026.9
FRYING PAN BUOY  2000   50 64   50/ 21/ 25 1026.1    7/ 8
BUOY 41001       NOT AVBL
BUOY 41002       NOT AVBL
BUOY 41004       NOT AVBL

$$



USA.gov is the U.S. government's official web portal to all federal, state and local government web resources and services.